• In Deutschland
  • Länderverzeichnis
  • Für 7 Tage
  • Wassertemperatur
  • Satellitenkarten
  • Wetterkarte
  • Widgets
  • user-avatar
    Anmelden

    Stündliche Wetter Heppenheim an der Bergstrasse

    Heute, 15 Dezember, Freitag

    Zeit Temperatur Niederschläge Wind Luftdruck Luftfeuchtigkeit
    00:00 +3°C° 0,4 mm 4 m/S 730 mmHg 85%
    01:00 +3°C° 0 mm 4 m/S 730 mmHg 86%
    02:00 +3°C° 0,6 mm 4 m/S 730 mmHg 84%
    03:00 +2°C° 0,6 mm 5 m/S 730 mmHg 83%
    04:00 +2°C° 0,6 mm 5 m/S 731 mmHg 81%
    05:00 +2°C° 0 mm 5 m/S 731 mmHg 82%
    06:00 +1°C° 0 mm 4 m/S 732 mmHg 83%
    07:00 +2°C° 0 mm 3 m/S 732 mmHg 83%
    08:00 +2°C° 0,3 mm 3 m/S 733 mmHg 83%
    09:00 +2°C° 0,3 mm 3 m/S 733 mmHg 83%
    10:00 +3°C° 0,3 mm 3 m/S 733 mmHg 83%
    11:00 +3°C° 0,9 mm 4 m/S 733 mmHg 82%
    12:00 +3°C° 0,9 mm 4 m/S 733 mmHg 82%
    13:00 +3°C° 0,9 mm 5 m/S 734 mmHg 81%
    14:00 +3°C° 0,3 mm 4 m/S 734 mmHg 82%
    15:00 +3°C° 0,3 mm 4 m/S 734 mmHg 82%
    16:00 +3°C° 0,3 mm 4 m/S 734 mmHg 83%
    17:00 +3°C° 0 mm 3 m/S 735 mmHg 85%
    18:00 +3°C° 0 mm 2 m/S 735 mmHg 87%
    19:00 +3°C° 0 mm 1 m/S 735 mmHg 89%
    20:00 +3°C° 0,1 mm 1 m/S 736 mmHg 90%
    21:00 +3°C° 0,1 mm 1 m/S 736 mmHg 91%
    22:00 +3°C° 0,1 mm 1 m/S 737 mmHg 91%
    23:00 +3°C° 0,2 mm 1 m/S 737 mmHg 91%

    Morgen, 16 Dezember, Samstag

    Zeit Temperatur Niederschläge Wind Luftdruck Luftfeuchtigkeit
    00:00 +2°C° 0,2 mm 0 m/S 737 mmHg 91%
    01:00 +2°C° 0,2 mm 0 m/S 737 mmHg 92%
    02:00 +1°C° 0,2 mm 0 m/S 738 mmHg 91%
    03:00 +1°C° 0,2 mm 0 m/S 738 mmHg 91%
    04:00 +1°C° 0,2 mm 0 m/S 739 mmHg 91%
    05:00 +2°C° 0,1 mm 1 m/S 739 mmHg 91%
    06:00 +2°C° 0,1 mm 1 m/S 740 mmHg 91%
    07:00 +2°C° 0,1 mm 1 m/S 740 mmHg 92%
    08:00 +2°C° 0 mm 1 m/S 741 mmHg 91%
    09:00 +2°C° 0 mm 1 m/S 742 mmHg 90%
    10:00 +2°C° 0 mm 2 m/S 742 mmHg 89%
    11:00 +2°C° 0 mm 2 m/S 743 mmHg 86%
    12:00 +3°C° 0 mm 2 m/S 743 mmHg 84%
    13:00 +2°C° 0 mm 3 m/S 744 mmHg 82%
    14:00 +3°C° 0 mm 2 m/S 744 mmHg 82%
    15:00 +3°C° 0 mm 2 m/S 745 mmHg 83%
    16:00 +3°C° 0 mm 2 m/S 745 mmHg 83%
    17:00 +3°C° 0,1 mm 2 m/S 746 mmHg 85%
    18:00 +2°C° 0,1 mm 2 m/S 747 mmHg 86%
    19:00 +1°C° 0,1 mm 3 m/S 747 mmHg 87%
    20:00 +1°C° 0 mm 3 m/S 748 mmHg 87%
    21:00 +1°C° 0 mm 3 m/S 748 mmHg 88%
    22:00 0°C° 0 mm 3 m/S 749 mmHg 88%
    23:00 0°C° 0 mm 3 m/S 749 mmHg 89%

    übermorgen, 17 Dezember, Sonntag

    Zeit Temperatur Niederschläge Wind Luftdruck Luftfeuchtigkeit
    00:00 0°C° 0 mm 3 m/S 749 mmHg 89%
    01:00 -1°C° 0 mm 3 m/S 750 mmHg 90%
    02:00 -1°C° 0 mm 3 m/S 750 mmHg 90%
    03:00 -1°C° 0 mm 3 m/S 750 mmHg 90%
    04:00 -1°C° 0 mm 3 m/S 751 mmHg 90%
    05:00 0°C° 0,1 mm 3 m/S 751 mmHg 90%
    06:00 0°C° 0,1 mm 3 m/S 752 mmHg 90%
    07:00 0°C° 0,1 mm 3 m/S 752 mmHg 90%
    08:00 0°C° 0 mm 3 m/S 753 mmHg 89%
    09:00 0°C° 0 mm 3 m/S 753 mmHg 88%
    10:00 0°C° 0 mm 3 m/S 754 mmHg 87%
    11:00 +1°C° 0 mm 3 m/S 754 mmHg 85%
    12:00 +1°C° 0 mm 3 m/S 754 mmHg 83%
    13:00 +2°C° 0 mm 3 m/S 755 mmHg 81%
    14:00 +2°C° 0 mm 3 m/S 755 mmHg 81%
    15:00 +1°C° 0 mm 3 m/S 755 mmHg 82%
    16:00 +1°C° 0 mm 3 m/S 756 mmHg 82%
    17:00 +1°C° 0 mm 3 m/S 756 mmHg 83%
    18:00 +1°C° 0 mm 3 m/S 756 mmHg 84%
    19:00 +1°C° 0 mm 3 m/S 757 mmHg 85%
    20:00 +1°C° 0 mm 3 m/S 757 mmHg 86%
    21:00 -1°C° 0 mm 4 m/S 757 mmHg 87%
    22:00 -1°C° 0 mm 4 m/S 757 mmHg 88%
    23:00 -1°C° 0 mm 4 m/S 757 mmHg 86%

    18 Dezember, Montag

    Zeit Temperatur Niederschläge Wind Luftdruck Luftfeuchtigkeit
    00:00 -1°C° 0 mm 5 m/S 756 mmHg 84%
    01:00 -1°C° 0 mm 5 m/S 756 mmHg 82%
    02:00 -2°C° 0,3 mm 6 m/S 755 mmHg 82%
    03:00 -2°C° 0,3 mm 6 m/S 754 mmHg 82%
    04:00 -2°C° 0,3 mm 7 m/S 753 mmHg 82%
    05:00 -1°C° 1,4 mm 6 m/S 753 mmHg 84%
    06:00 -1°C° 1,4 mm 6 m/S 752 mmHg 87%
    07:00 +1°C° 1,4 mm 6 m/S 752 mmHg 89%
    08:00 +1°C° 0,7 mm 6 m/S 752 mmHg 90%
    09:00 +1°C° 0,7 mm 5 m/S 752 mmHg 92%
    10:00 +2°C° 0,7 mm 5 m/S 752 mmHg 93%
    11:00 +3°C° 0,1 mm 4 m/S 752 mmHg 91%
    12:00 +3°C° 0,1 mm 4 m/S 753 mmHg 89%
    13:00 +4°C° 0,1 mm 3 m/S 753 mmHg 87%
    14:00 +3°C° 0,1 mm 3 m/S 753 mmHg 87%
    15:00 +3°C° 0,1 mm 3 m/S 754 mmHg 87%
    16:00 +3°C° 0,1 mm 3 m/S 754 mmHg 87%
    17:00 +2°C° 0 mm 3 m/S 755 mmHg 88%
    18:00 +3°C° 0 mm 2 m/S 755 mmHg 89%
    19:00 +2°C° 0 mm 2 m/S 756 mmHg 90%
    20:00 +2°C° 0 mm 2 m/S 757 mmHg 90%
    21:00 +1°C° 0 mm 2 m/S 757 mmHg 91%
    22:00 +1°C° 0 mm 2 m/S 758 mmHg 91%
    23:00 +2°C° 0 mm 1 m/S 758 mmHg 92%

    19 Dezember, Dienstag

    Zeit Temperatur Niederschläge Wind Luftdruck Luftfeuchtigkeit
    00:00 +1°C° 0 mm 1 m/S 758 mmHg 92%
    01:00 +1°C° 0 mm 1 m/S 759 mmHg 92%
    02:00 +1°C° 0 mm 1 m/S 759 mmHg 92%
    03:00 +1°C° 0 mm 1 m/S 759 mmHg 92%
    04:00 +1°C° 0 mm 1 m/S 760 mmHg 92%
    05:00 +1°C° 0 mm 1 m/S 760 mmHg 92%
    06:00 +1°C° 0 mm 1 m/S 760 mmHg 92%
    07:00 +1°C° 0 mm 1 m/S 761 mmHg 92%
    08:00 +2°C° 0 mm 1 m/S 761 mmHg 92%
    09:00 +2°C° 0 mm 1 m/S 761 mmHg 91%
    10:00 +3°C° 0 mm 1 m/S 762 mmHg 90%
    11:00 +3°C° 0 mm 1 m/S 761 mmHg 90%
    12:00 +4°C° 0 mm 1 m/S 761 mmHg 89%
    13:00 +4°C° 0 mm 1 m/S 761 mmHg 89%
    14:00 +4°C° 0,1 mm 1 m/S 761 mmHg 90%
    15:00 +4°C° 0,1 mm 1 m/S 761 mmHg 91%
    16:00 +4°C° 0,1 mm 1 m/S 761 mmHg 93%
    17:00 +3°C° 0,1 mm 2 m/S 762 mmHg 93%
    18:00 +3°C° 0,1 mm 2 m/S 762 mmHg 93%
    19:00 +3°C° 0,1 mm 2 m/S 762 mmHg 93%
    20:00 +3°C° 0,3 mm 2 m/S 762 mmHg 93%
    21:00 +3°C° 0,3 mm 2 m/S 762 mmHg 92%
    22:00 +3°C° 0,3 mm 2 m/S 762 mmHg 92%
    23:00 +3°C° 0,2 mm 2 m/S 761 mmHg 92%

    20 Dezember, Mittwoch

    Zeit Temperatur Niederschläge Wind Luftdruck Luftfeuchtigkeit
    00:00 +3°C° 0,2 mm 2 m/S 761 mmHg 92%
    01:00 +3°C° 0,2 mm 2 m/S 761 mmHg 92%
    02:00 +3°C° 0,2 mm 2 m/S 761 mmHg 92%
    03:00 +3°C° 0,2 mm 2 m/S 761 mmHg 92%
    04:00 +3°C° 0,2 mm 2 m/S 761 mmHg 92%
    05:00 +3°C° 0,1 mm 2 m/S 761 mmHg 93%
    06:00 +3°C° 0,1 mm 2 m/S 761 mmHg 93%
    07:00 +3°C° 0,1 mm 2 m/S 761 mmHg 93%
    08:00 +3°C° 0 mm 2 m/S 761 mmHg 94%
    09:00 +4°C° 0 mm 2 m/S 762 mmHg 94%
    10:00 +4°C° 0 mm 2 m/S 762 mmHg 94%
    11:00 +4°C° 0,1 mm 2 m/S 762 mmHg 94%
    12:00 +5°C° 0,1 mm 1 m/S 762 mmHg 94%
    13:00 +6°C° 0,1 mm 1 m/S 762 mmHg 94%
    14:00 +6°C° 0,1 mm 1 m/S 762 mmHg 95%
    15:00 +6°C° 0,1 mm 1 m/S 762 mmHg 95%
    16:00 +6°C° 0,1 mm 1 m/S 762 mmHg 96%
    17:00 +6°C° 0,1 mm 1 m/S 762 mmHg 96%
    18:00 +6°C° 0,1 mm 1 m/S 763 mmHg 96%
    19:00 +6°C° 0,1 mm 1 m/S 763 mmHg 97%
    20:00 +6°C° 0 mm 1 m/S 763 mmHg 97%
    21:00 +6°C° 0 mm 2 m/S 763 mmHg 97%
    22:00 +6°C° 0 mm 2 m/S 763 mmHg 97%
    23:00 +6°C° 0 mm 2 m/S 763 mmHg 97%
    Mehr zeigen